Weather reports worldwide

Advertisment
Feldberg/Mecklenburg, Germany (10282): temperature & dewpoint: 10.07.2018 18:00:00 - 16.07.2018 18:00:00 (CEST)Feldberg/Mecklenburg, Germany (10282): temperature 5cm & temperature -5cm: 10.07.2018 18:00:00 - 16.07.2018 18:00:00 (CEST)Feldberg/Mecklenburg, Germany (10282): temperature -20cm & temperature -100cm: 10.07.2018 18:00:00 - 16.07.2018 18:00:00 (CEST)Feldberg/Mecklenburg, Germany (10282): wind speed & gusts: 10.07.2018 18:00:00 - 16.07.2018 18:00:00 (CEST)Feldberg/Mecklenburg, Germany (10282): wind direction: 10.07.2018 18:00:00 - 16.07.2018 18:00:00 (CEST)Feldberg/Mecklenburg, Germany (10282): reduced air pressure: 10.07.2018 18:00:00 - 16.07.2018 18:00:00 (CEST)Feldberg/Mecklenburg, Germany (10282): visibility: 10.07.2018 18:00:00 - 16.07.2018 18:00:00 (CEST)Feldberg/Mecklenburg, Germany (10282): sunshine duration: 10.07.2018 18:00:00 - 16.07.2018 18:00:00 (CEST)Feldberg/Mecklenburg, Germany (10282): precipitation: 10.07.2018 18:00:00 - 16.07.2018 18:00:00 (CEST)
Date & Time tt [°C] td [°C] tt 5cm [°C] tt -5cm [°C] tt -20cm [°C] tt -100cm [°C] ff [km/h] ff [kn] fx [km/h] fx [kn] dd ppp [hPa] vv [km] sd [min] rr [mm]
16.07.2018 18:00:00 26,7 13,3 30,8 36,4 27,1 18,0 12 7 23 12 NE 1011,7 22 60 0,0
16.07.2018 17:00:00 27,2 11,5 32,1 37,5 26,3 18,0 10 6 20 11 NNE 1011,9 22 58 0,0
16.07.2018 16:00:00 27,3 11,9 32,4 38,2 25,2 18,0 9 5 20 11 NNE 1012,3 23 56 0,0
16.07.2018 15:00:00 27,0 11,7 33,2 37,6 24,0 18,0 5 3 19 10 NE 1013,0 24 59 0,0
16.07.2018 14:00:00 25,7 11,2 30,8 36,0 22,7 18,0 10 5 16 9 NE 1013,6 29 60 0,0
16.07.2018 13:00:00 24,7 10,7 30,9 33,9 21,4 18,0 6 3 19 11 NW 1014,1 24 60 0,0
16.07.2018 12:00:00 23,6 11,0 29,2 30,4 20,3 18,0 7 4 19 10 N 1014,5 23 60 0,0
16.07.2018 11:00:00 22,9 12,3 26,7 27,1 19,4 18,0 4 2 14 7 W 1014,7 28 60 0,0
16.07.2018 10:00:00 21,2 13,2 25,5 24,1 18,6 18,0 5 3 16 8 NW 1015,0 22 60 0,0
16.07.2018 09:00:00 19,7 13,5 23,3 20,6 18,2 18,0 9 5 15 8 N 1015,3 9 60 0,0
16.07.2018 08:00:00 17,5 13,1 19,7 17,6 18,1 18,0 6 4 11 6 NW 1015,5 9 60 0,0
16.07.2018 07:00:00 15,0 13,2 15,0 14,9 18,4 18,0 4 2 8 4 NW 1015,7 6 36 0,0
16.07.2018 06:00:00 12,2 11,6 11,1 14,1 18,8 18,0 5 3 7 4 W 1016,2 4,7 14 0,0
16.07.2018 05:00:00 11,4 10,9 9,8 14,5 19,3 17,9 4 2 6 4 WNW 1016,2 9 0 0,0
16.07.2018 04:00:00 11,4 10,9 10,1 15,1 19,8 17,9 0 0 5 3 N 1016,3 8 0 0,0
16.07.2018 03:00:00 11,4 10,6 10,2 15,8 20,3 17,9 4 2 7 4 NW 1016,7 7 0 0,0
16.07.2018 02:00:00 12,5 11,7 10,6 16,6 20,9 17,9 5 3 6 3 WNW 1016,7 10 0 0,0
16.07.2018 01:00:00 12,9 11,7 11,9 17,5 21,5 17,9 4 2 7 4 N 1016,8 11 0 0,0
16.07.2018 00:00:00 13,5 11,9 12,1 18,6 22,1 17,9 4 2 6 4 NW 1016,8 13 0 0,0
15.07.2018 23:00:00 14,3 12,4 13,3 19,9 22,7 17,9 2 1 6 4 N 1016,4 15 0 0,0
15.07.2018 22:00:00 16,8 12,4 14,6 21,7 23,2 18,0 5 3 16 9 NNW 1016,3 20 3 0,0
15.07.2018 21:00:00 20,3 12,4 19,7 23,8 23,5 18,0 14 7 24 13 N 1015,9 24 58 0,0
15.07.2018 20:00:00 22,1 12,9 23,6 26,3 23,5 18,0 13 7 21 11 N 1015,5 21 21 0,0
15.07.2018 19:00:00 23,1 12,4 25,7 28,8 23,3 18,0 13 7 24 13 N 1015,3 24 57 0,0
15.07.2018 18:00:00 24,0 12,0 28,3 29,2 22,8 18,0 13 7 25 14 NNW 1015,6 23 42 0,0
15.07.2018 17:00:00 24,4 10,9 29,4 31,1 22,0 18,0 8 5 17 9 NW 1015,9 32 51 0,0
15.07.2018 16:00:00 22,7 10,8 26,5 30,1 21,3 18,0 11 6 21 12 N 1016,4 31 40 0,0
15.07.2018 15:00:00 22,2 10,2 26,1 28,0 20,7 18,0 11 6 20 11 NNE 1016,9 21 36 0,0
15.07.2018 14:00:00 21,1 11,1 23,4 26,5 20,0 18,0 14 8 25 13 NNW 1017,2 43 36 0,0
15.07.2018 13:00:00 20,8 11,0 24,7 25,0 19,4 18,0 9 5 23 12 NW 1017,6 35 24 0,0
15.07.2018 12:00:00 20,2 11,0 23,2 24,3 18,8 18,0 10 5 22 12 N 1017,8 26 22 0,0
15.07.2018 11:00:00 19,2 12,1 21,0 23,7 18,1 18,0 12 7 20 11 NW 1017,8 19 29 0,0
15.07.2018 10:00:00 18,2 13,0 22,7 21,2 17,5 18,0 9 5 21 11 NNW 1018,0 25 32 0,0
15.07.2018 09:00:00 16,8 12,9 19,0 19,2 17,0 18,0 12 6 21 12 NW 1018,0 15 57 0,0
15.07.2018 08:00:00 15,5 12,4 17,1 16,2 16,9 18,0 13 7 19 10 WNW 1018,0 12 55 0,0
15.07.2018 07:00:00 13,4 11,9 13,3 13,8 17,1 18,0 8 4 14 8 W 1018,1 19 42 0,0
15.07.2018 06:00:00 12,9 10,7 11,5 12,8 17,4 18,0 10 5 16 8 WNW 1018,1 28 17 0,0
15.07.2018 05:00:00 12,4 10,7 10,7 12,8 17,9 18,0 10 5 14 8 WNW 1017,9 27 0 0,0
15.07.2018 04:00:00 10,8 9,4 9,5 13,2 18,3 18,0 5 3 8 4 WNW 1018,1 31 0 0,0
15.07.2018 03:00:00 10,9 9,6 9,2 13,8 18,8 18,0 3 2 8 4 W 1018,2 31 0 0,0
15.07.2018 02:00:00 11,4 9,6 9,4 14,4 19,3 18,0 5 3 7 4 WNW 1018,4 32 0 0,0
15.07.2018 01:00:00 11,8 10,2 10,4 15,2 19,8 18,0 4 2 6 4 WNW 1018,5 30 0 0,0
15.07.2018 00:00:00 11,7 10,1 10,2 16,1 20,3 18,0 4 2 7 4 WNW 1018,6 27 0 0,0
14.07.2018 23:00:00 15,7 10,2 13,3 17,4 20,8 18,0 5 3 15 8 NNW 1018,4 37 0 0,0
14.07.2018 22:00:00 15,8 10,6 15,0 18,1 21,4 18,0 5 3 15 8 WNW 1018,5 41 0 0,0
14.07.2018 21:00:00 16,8 10,5 16,2 19,2 21,9 18,0 10 5 23 13 WNW 1018,2 48 7 0,0
14.07.2018 20:00:00 18,4 10,8 19,3 21,1 22,2 18,0 13 7 24 13 NW 1018,1 29 30 0,0
14.07.2018 19:00:00 19,0 10,6 21,3 23,6 22,4 18,0 14 8 27 15 NW 1017,8 23 59 0,0
14.07.2018 18:00:00 19,6 11,1 22,4 24,9 22,3 18,0 16 9 29 16 NW 1017,9 19 55 0,0
14.07.2018 17:00:00 20,3 12,0 23,5 26,5 22,1 18,0 16 9 33 18 WNW 1018,1 14 54 0,0
14.07.2018 16:00:00 20,2 11,7 24,1 27,1 21,7 18,0 17 9 29 16 NW 1018,5 10 52 0,0
14.07.2018 15:00:00 20,1 12,7 23,2 27,2 21,2 18,0 16 9 32 18 NW 1018,6 18 37 0,0
14.07.2018 14:00:00 21,6 12,8 26,0 27,5 20,5 18,0 13 7 27 15 NW 1018,8 12 52 0,0
14.07.2018 13:00:00 19,9 12,1 25,0 27,1 19,7 18,0 16 9 27 15 NW 1019,0 4,6 57 0,0
14.07.2018 12:00:00 19,6 12,4 24,6 25,4 18,9 18,0 15 8 31 17 NW 1019,0 7 60 0,0
14.07.2018 11:00:00 18,4 12,2 21,7 22,7 18,3 18,0 20 11 29 16 WNW 1019,1 10 59 0,0
14.07.2018 10:00:00 17,3 12,6 20,8 19,3 18,1 18,0 17 9 27 14 WNW 1019,1 11 16 0,0
14.07.2018 09:00:00 15,2 12,6 16,4 17,4 18,0 18,0 17 9 27 14 WNW 1018,9 15 0 0,0
14.07.2018 08:00:00 15,0 13,0 15,8 16,5 18,1 18,0 14 7 32 18 NW 1018,7 15 0 0,0
14.07.2018 07:00:00 14,7 13,1 15,0 15,6 18,3 18,0 16 9 31 17 NW 1018,2 8 0 0,0
14.07.2018 06:00:00 14,4 13,0 13,9 15,0 18,6 18,0 21 11 32 18 NW 1018,0 20 0 0,0
14.07.2018 05:00:00 14,6 13,0 13,9 15,2 18,9 18,0 16 9 29 16 NW 1017,9 14 0 0,0
14.07.2018 04:00:00 15,3 13,0 14,4 15,7 19,3 18,0 16 9 29 16 NW 1017,8 17 0 0,0
14.07.2018 03:00:00 16,0 13,0 15,2 16,1 19,7 18,0 17 9 28 15 NW 1017,7 20 0 0,0
14.07.2018 02:00:00 16,5 13,0 15,4 16,6 20,2 18,0 14 8 26 14 NW 1017,7 23 0 0,0
14.07.2018 01:00:00 17,8 12,8 16,5 17,2 20,7 18,0 14 8 23 13 NW 1017,6 23 0 0,0
14.07.2018 00:00:00 18,7 12,2 17,2 17,9 21,2 18,0 13 7 20 11 NW 1017,4 23 0 0,0
13.07.2018 23:00:00 19,7 11,8 18,0 18,9 21,7 18,0 13 7 21 11 WNW 1017,4 23 0 0,0
13.07.2018 22:00:00 21,0 12,0 19,1 20,2 22,1 18,1 10 5 18 10 NW 1017,0 24 0 0,0
13.07.2018 21:00:00 22,8 12,2 21,6 21,8 22,5 18,1 11 6 23 13 NW 1016,7 18 51 0,0
13.07.2018 20:00:00 24,7 13,0 25,2 23,4 22,7 18,1 10 5 30 16 NW 1016,1 12 60 0,0
13.07.2018 19:00:00 25,0 11,4 26,4 24,9 22,8 18,1 16 9 34 18 NNW 1015,6 8 60 0,0
13.07.2018 18:00:00 25,3 13,1 25,9 26,4 22,7 18,1 19 11 33 18 NW 1015,5 2,8 55 0,0
13.07.2018 17:00:00 26,0 12,6 28,4 27,4 22,4 18,1 19 10 34 18 NW 1015,7 12 56 0,0
13.07.2018 16:00:00 26,1 14,2 29,3 28,4 21,9 18,1 20 11 35 19 NW 1015,8 10 56 0,0
13.07.2018 15:00:00 24,9 14,0 28,4 28,4 21,3 18,2 19 10 34 19 NW 1015,8 10 58 0,0
13.07.2018 14:00:00 24,3 14,8 27,7 28,6 20,5 18,2 18 10 32 17 WNW 1016,2 11 60 0,0
13.07.2018 13:00:00 23,7 15,6 28,0 27,6 19,7 18,2 14 8 29 15 WNW 1016,5 14 59 0,0
13.07.2018 12:00:00 22,7 15,4 26,9 25,8 18,9 18,2 16 9 32 18 WNW 1016,3 13 60 0,0
13.07.2018 11:00:00 20,7 14,8 24,0 23,7 18,1 18,2 14 8 27 15 WNW 1016,3 13 52 0,0
13.07.2018 10:00:00 19,9 15,2 23,2 21,2 17,6 18,2 13 7 35 19 NW 1016,2 6 59 0,0
13.07.2018 09:00:00 18,0 15,1 19,2 18,4 17,4 18,2 20 11 31 17 WNW 1015,9 9 12 0,0
13.07.2018 08:00:00 16,3 14,8 16,9 16,3 17,4 18,2 14 8 23 12 NW 1015,7 8 1 0,0
13.07.2018 07:00:00 15,5 14,2 15,1 15,3 17,5 18,3 12 6 21 11 NW 1015,4 11 4 0,0
13.07.2018 06:00:00 15,7 13,9 14,5 15,1 17,8 18,3 14 7 24 13 NW 1015,2 14 9 0,0
13.07.2018 05:00:00 15,9 13,9 14,5 15,3 18,0 18,3 14 7 22 12 NW 1014,8 15 0 0,0
13.07.2018 04:00:00 15,4 14,6 14,2 15,7 18,2 18,3 6 3 15 8 NW 1015,0 8 0 0,0
13.07.2018 03:00:00 16,0 15,4 15,2 16,1 18,4 18,3 9 5 13 7 WNW 1015,1 6 0 0,0
13.07.2018 02:00:00 16,2 15,4 15,4 16,7 18,6 18,3 6 4 11 6 NW 1015,1 8 0 0,0
13.07.2018 01:00:00 16,9 15,6 16,1 17,3 18,7 18,3 7 4 13 7 NW 1015,3 12 0 0,0
13.07.2018 00:00:00 17,4 15,7 16,8 17,6 18,9 18,4 7 4 13 7 NW 1015,0 15 0 0,0
12.07.2018 23:00:00 17,5 15,7 16,8 17,8 19,0 18,4 7 4 12 6 NNW 1014,7 19 0 0,0
12.07.2018 22:00:00 17,7 15,8 16,9 18,1 19,1 18,4 5 3 14 7 NNW 1014,8 12 0 0,0
12.07.2018 21:00:00 18,2 15,7 17,5 18,6 19,2 18,4 7 4 17 9 NNW 1013,9 18 0 0,1
12.07.2018 20:00:00 18,8 15,3 18,6 18,9 19,2 18,4 9 5 23 12 NNW 1013,7 22 0 0,0
12.07.2018 19:00:00 18,9 15,2 19,1 19,2 19,2 18,4 12 6 26 14 NNW 1013,6 22 0 0,0
12.07.2018 18:00:00 18,7 14,8 19,2 19,0 19,2 18,4 15 8 31 17 NNW 1013,4 23 0 0,0
12.07.2018 17:00:00 18,6 14,7 19,0 19,4 19,2 18,5 20 11 34 19 NNW 1013,1 24 0 0,0
12.07.2018 16:00:00 18,4 14,8 18,8 19,3 19,1 18,5 17 9 36 19 NNW 1013,0 17 0 0,0
12.07.2018 15:00:00 17,8 15,6 18,0 19,6 19,1 18,5 14 8 35 19 NNW 1012,9 16 0 0,0
12.07.2018 14:00:00 17,7 14,5 18,5 19,8 18,9 18,5 21 12 36 19 NNW 1012,8 38 0 0,0
12.07.2018 13:00:00 17,9 15,3 19,5 19,6 18,7 18,5 19 11 34 18 N 1012,6 15 0 0,0
12.07.2018 12:00:00 17,0 15,1 17,7 19,0 18,6 18,5 21 11 40 21 N 1012,4 20 0 0,0
12.07.2018 11:00:00 16,8 14,8 17,9 18,6 18,5 18,5 21 11 31 17 N 1012,3 19 0 0,0
12.07.2018 10:00:00 16,3 14,8 16,2 18,2 18,5 18,5 18 10 37 20 N 1012,2 17 0 0,3
12.07.2018 09:00:00 16,6 15,6 16,7 17,5 18,5 18,5 20 11 34 18 N 1012,0 7 0 1,4
12.07.2018 08:00:00 16,6 15,8 16,5 17,2 18,6 18,6 19 11 35 19 N 1011,6 6 0 1,9
12.07.2018 07:00:00 16,6 15,7 16,3 17,1 18,7 18,6 22 12 34 19 N 1011,5 7 0 3,2
12.07.2018 06:00:00 16,6 15,9 16,4 17,1 18,9 18,6 18 10 30 16 NNW 1011,6 3,6 0 2,9
12.07.2018 05:00:00 16,2 15,7 16,2 17,1 19,1 18,6 14 8 24 13 NNW 1012,0 3,9 0 6,1
12.07.2018 04:00:00 16,2 15,7 16,1 17,2 19,3 18,6 11 6 19 10 NNW 1012,5 1,7 0 1,4
12.07.2018 03:00:00 15,8 15,2 15,7 17,3 19,6 18,6 10 5 17 9 NW 1012,9 4,2 0 0,0
12.07.2018 02:00:00 15,8 14,8 15,4 17,5 19,9 18,6 10 6 16 8 NNW 1013,4 10 0 0,0
12.07.2018 01:00:00 16,2 14,8 16,1 18,1 20,1 18,6 10 6 16 9 N 1014,0 16 0 0,0
12.07.2018 00:00:00 16,6 15,5 16,6 18,5 20,4 18,6 11 6 16 9 N 1014,3 12 0 0,0
11.07.2018 23:00:00 16,8 15,3 16,8 19,0 20,7 18,7 7 4 11 6 NNW 1014,5 19 0 0,0
11.07.2018 22:00:00 16,6 15,3 16,5 19,5 20,9 18,7 6 3 10 6 NNW 1014,3 13 0 0,0
11.07.2018 21:00:00 17,0 15,3 16,9 20,6 21,1 18,7 6 3 16 9 NNE 1014,0 11 0 0,0
11.07.2018 20:00:00 18,3 15,2 19,1 22,0 21,0 18,7 11 6 22 12 NNE 1013,8 26 22 0,0
11.07.2018 19:00:00 18,0 14,9 18,7 23,2 20,7 18,7 12 6 24 13 NE 1013,8 28 46 0,0
11.07.2018 18:00:00 19,0 15,6 21,9 23,1 20,4 18,7 13 7 21 11 NNE 1013,7 14 34 0,0
11.07.2018 17:00:00 17,8 15,4 18,5 22,2 20,2 18,7 8 4 15 8 NNE 1014,0 22 2 0,0
11.07.2018 16:00:00 17,2 14,7 18,1 20,4 20,2 18,7 4 2 8 4 N 1014,3 23 0 4,5
11.07.2018 15:00:00 17,2 15,1 16,9 20,8 20,0 18,7 2 1 10 5 S 1014,8 3,1 0 0,0
11.07.2018 14:00:00 17,1 15,3 18,5 20,9 19,8 18,7 4 2 14 7 W 1014,4 11 0 0,0
11.07.2018 13:00:00 17,2 15,3 18,5 21,3 19,4 18,7 5 3 8 4 SE 1014,5 12 0 0,0
11.07.2018 12:00:00 16,9 14,6 18,4 20,0 19,2 18,7 4 2 9 5 E 1014,5 12 0 0,0
11.07.2018 11:00:00 16,2 15,0 17,2 18,5 19,2 18,8 5 3 11 6 SSE 1014,5 14 0 1,1
11.07.2018 10:00:00 15,4 14,7 15,7 17,7 19,2 18,8 10 5 22 12 E 1014,4 3,2 0 0,5
11.07.2018 09:00:00 15,3 14,7 15,5 17,4 19,4 18,8 12 7 20 11 ENE 1014,4 3,5 0 0,0
11.07.2018 08:00:00 15,2 14,5 15,3 17,1 19,6 18,8 13 7 22 12 ENE 1014,0 6 0 0,4
11.07.2018 07:00:00 15,2 14,6 15,2 17,0 19,8 18,8 9 5 16 9 ENE 1013,9 3,7 0 0,3
11.07.2018 06:00:00 15,0 14,3 14,9 16,9 20,2 18,8 10 5 19 11 NE 1013,8 12 0 0,2
11.07.2018 05:00:00 14,0 13,2 14,1 17,0 20,6 18,8 8 5 14 8 NNW 1013,8 23 0 1,5
11.07.2018 04:00:00 14,0 13,2 14,0 17,3 21,0 18,8 8 4 16 9 NNW 1014,3 4,7 0 1,3
11.07.2018 03:00:00 14,2 13,5 14,3 17,8 21,5 18,8 9 5 16 9 WSW 1014,9 3,8 0 7,1
11.07.2018 02:00:00 15,5 14,9 15,5 18,5 22,0 18,8 6 3 16 9 NNW 1015,2 2,4 0 4,1
11.07.2018 01:00:00 15,2 14,6 15,3 19,5 22,4 18,8 5 3 15 8 NNW 1015,4 10 0 0,4
11.07.2018 00:00:00 14,8 14,2 14,8 20,1 22,9 18,8 9 5 16 9 W 1015,5 7 0 0,0
10.07.2018 23:00:00 15,3 14,7 15,4 21,1 23,3 18,8 6 4 10 5 SW 1016,0 8 0 0,0
10.07.2018 22:00:00 15,3 14,6 15,3 22,2 23,8 18,8 3 2 15 8 W 1015,9 10 0 1,0
10.07.2018 21:00:00 16,0 12,9 15,1 23,9 24,1 18,8 6 4 14 8 S 1016,0 12 0 0,5
10.07.2018 20:00:00 19,0 11,3 19,4 25,7 24,2 18,8 10 5 19 10 NNE 1015,3 34 0 0,0
10.07.2018 19:00:00 19,5 10,7 20,8 27,0 24,1 18,8 11 6 20 11 NE 1015,1 36 0 0,0
10.07.2018 18:00:00 20,0 9,1 22,3 29,0 23,8 18,8 9 5 22 12 E 1015,0 37 42 0,0

tt = temperature
td = dewpoint
tt 5cm = temperature 5cm
tt -5cm = temperature -5cm
tt -20cm = temperature -20cm
tt -100cm = temperature -100cm
ff = wind speed
fx = gusts
dd = wind direction
ppp = reduced air pressure
vv = visibility
sd = sunshine duration
rr = precipitation

Next stations